******** Week 359 almanac for PRN-1 ******** ID: 1 Health: 0 Eccentricity: 0.001542568207 Time of Applicability(s): 61440 Orbital Inclination(rad): 0.9583568941 Rate of Right Ascen(r/s): -8.080336578e-09 SQRT(A) (m 1/2): 5153.57666 Right Ascen at Week(rad): -3.019696235 Argument of Perigee(rad): 0.05687338635 Mean Anom(rad): 0.4429938778 Af0(s): 0.0002592639648 Af1(s/s): -7.275958e-12 week: 359 ******** Week 359 almanac for PRN-2 ******** ID: 2 Health: 0 Eccentricity: 0.01692962646 Time of Applicability(s): 61440 Orbital Inclination(rad): 0.9636539215 Rate of Right Ascen(r/s): -8.023191341e-09 SQRT(A) (m 1/2): 5153.547363 Right Ascen at Week(rad): 3.100996093 Argument of Perigee(rad): -0.819409394 Mean Anom(rad): 1.88264833 Af0(s): 3.466901855e-05 Af1(s/s): 7.275958e-12 week: 359 ******** Week 359 almanac for PRN-3 ******** ID: 3 Health: 0 Eccentricity: 0.006455421448 Time of Applicability(s): 61440 Orbital Inclination(rad): 0.9930811857 Rate of Right Ascen(r/s): -7.520313251e-09 SQRT(A) (m 1/2): 5153.592285 Right Ascen at Week(rad): -2.033097541 Argument of Perigee(rad): 1.202712469 Mean Anom(rad): -1.717046191 Af0(s): 0.0004439141724 Af1(s/s): -1.091394e-11 week: 359 ******** Week 359 almanac for PRN-4 ******** ID: 4 Health: 0 Eccentricity: 0.003722667694 Time of Applicability(s): 61440 Orbital Inclination(rad): 0.970448977 Rate of Right Ascen(r/s): -7.908900866e-09 SQRT(A) (m 1/2): 5153.679688 Right Ascen at Week(rad): -0.9621010659 Argument of Perigee(rad): -2.884269999 Mean Anom(rad): 1.277403776 Af0(s): 3.617636719e-05 Af1(s/s): 3.637979e-12 week: 359 ******** Week 359 almanac for PRN-5 ******** ID: 5 Health: 0 Eccentricity: 0.005386352539 Time of Applicability(s): 61440 Orbital Inclination(rad): 0.9796708381 Rate of Right Ascen(r/s): -7.668890868e-09 SQRT(A) (m 1/2): 5153.658203 Right Ascen at Week(rad): -2.092744526 Argument of Perigee(rad): 1.417719201 Mean Anom(rad): 1.933298159 Af0(s): -0.0001808818359 Af1(s/s): 0 week: 359 ******** Week 359 almanac for PRN-6 ******** ID: 6 Health: 0 Eccentricity: 0.003870010376 Time of Applicability(s): 61440 Orbital Inclination(rad): 0.9872568524 Rate of Right Ascen(r/s): -7.794610391e-09 SQRT(A) (m 1/2): 5153.586914 Right Ascen at Week(rad): -3.069377963 Argument of Perigee(rad): -0.5804604276 Mean Anom(rad): -0.3823776682 Af0(s): -0.0004831052368 Af1(s/s): 0 week: 359 ******** Week 359 almanac for PRN-7 ******** ID: 7 Health: 0 Eccentricity: 0.02042913437 Time of Applicability(s): 61440 Orbital Inclination(rad): 0.9513041777 Rate of Right Ascen(r/s): -7.897471818e-09 SQRT(A) (m 1/2): 5153.569336 Right Ascen at Week(rad): 0.04649317505 Argument of Perigee(rad): -1.994631549 Mean Anom(rad): -1.259676486 Af0(s): -0.0001205878906 Af1(s/s): -3.637979e-12 week: 359 ******** Week 359 almanac for PRN-8 ******** ID: 8 Health: 0 Eccentricity: 0.01154613495 Time of Applicability(s): 61440 Orbital Inclination(rad): 0.9434245498 Rate of Right Ascen(r/s): -8.286059433e-09 SQRT(A) (m 1/2): 5153.62793 Right Ascen at Week(rad): 2.094089755 Argument of Perigee(rad): 0.52087973 Mean Anom(rad): 1.572246419 Af0(s): 0.00038588125 Af1(s/s): -3.637979e-12 week: 359 ******** Week 359 almanac for PRN-9 ******** ID: 9 Health: 0 Eccentricity: 0.003367900848 Time of Applicability(s): 61440 Orbital Inclination(rad): 0.9645767068 Rate of Right Ascen(r/s): -7.977475151e-09 SQRT(A) (m 1/2): 5153.725098 Right Ascen at Week(rad): -1.026299435 Argument of Perigee(rad): 2.068518041 Mean Anom(rad): 2.168567593 Af0(s): 0.000607461499 Af1(s/s): 0 week: 359 ******** Week 359 almanac for PRN-10 ******** ID: 10 Health: 0 Eccentricity: 0.01094484329 Time of Applicability(s): 61440 Orbital Inclination(rad): 0.9926257852 Rate of Right Ascen(r/s): -7.531742299e-09 SQRT(A) (m 1/2): 5153.61084 Right Ascen at Week(rad): -2.035605614 Argument of Perigee(rad): -2.256888709 Mean Anom(rad): -2.704524976 Af0(s): -0.0004657707275 Af1(s/s): 0 week: 359 ******** Week 359 almanac for PRN-11 ******** ID: 11 Health: 0 Eccentricity: 0.002223491669 Time of Applicability(s): 61440 Orbital Inclination(rad): 0.964109322 Rate of Right Ascen(r/s): -8.011762293e-09 SQRT(A) (m 1/2): 5153.521973 Right Ascen at Week(rad): -3.050414425 Argument of Perigee(rad): -2.292752252 Mean Anom(rad): 0.6740647143 Af0(s): -0.0003399071167 Af1(s/s): 1.455192e-11 week: 359 ******** Week 359 almanac for PRN-12 ******** ID: 12 Health: 0 Eccentricity: 0.009046554565 Time of Applicability(s): 61440 Orbital Inclination(rad): 0.9589740817 Rate of Right Ascen(r/s): -7.783181343e-09 SQRT(A) (m 1/2): 5153.731445 Right Ascen at Week(rad): 1.164084691 Argument of Perigee(rad): 1.557992307 Mean Anom(rad): -1.909918059 Af0(s): -0.0004800905395 Af1(s/s): 0 week: 359 ******** Week 359 almanac for PRN-13 ******** ID: 13 Health: 0 Eccentricity: 0.009979724884 Time of Applicability(s): 61440 Orbital Inclination(rad): 0.9761474759 Rate of Right Ascen(r/s): -7.851755628e-09 SQRT(A) (m 1/2): 5153.616211 Right Ascen at Week(rad): -0.8512810657 Argument of Perigee(rad): 0.9968407124 Mean Anom(rad): 1.321058937 Af0(s): 0.0005418918335 Af1(s/s): 0 week: 359 ******** Week 359 almanac for PRN-14 ******** ID: 14 Health: 0 Eccentricity: 0.006680965424 Time of Applicability(s): 61440 Orbital Inclination(rad): 0.9423459696 Rate of Right Ascen(r/s): -7.931758961e-09 SQRT(A) (m 1/2): 5153.601074 Right Ascen at Week(rad): 1.109563208 Argument of Perigee(rad): -2.754705922 Mean Anom(rad): -2.073776119 Af0(s): 0.0005818365723 Af1(s/s): 3.637979e-12 week: 359 ******** Week 359 almanac for PRN-15 ******** ID: 15 Health: 0 Eccentricity: 0.01661062241 Time of Applicability(s): 61440 Orbital Inclination(rad): 0.9423998986 Rate of Right Ascen(r/s): -8.194627053e-09 SQRT(A) (m 1/2): 5153.630859 Right Ascen at Week(rad): -1.170183912 Argument of Perigee(rad): 1.499688303 Mean Anom(rad): 0.5745286108 Af0(s): 0.0003067454468 Af1(s/s): 3.637979e-12 week: 359 ******** Week 359 almanac for PRN-16 ******** ID: 16 Health: 0 Eccentricity: 0.01505184174 Time of Applicability(s): 61440 Orbital Inclination(rad): 0.9581052254 Rate of Right Ascen(r/s): -7.817468486e-09 SQRT(A) (m 1/2): 5153.596191 Right Ascen at Week(rad): 1.181079445 Argument of Perigee(rad): 0.9291238495 Mean Anom(rad): 2.594005705 Af0(s): 0.0001680693726 Af1(s/s): 7.275958e-12 week: 359 ******** Week 359 almanac for PRN-17 ******** ID: 17 Health: 0 Eccentricity: 0.01267957687 Time of Applicability(s): 61440 Orbital Inclination(rad): 0.9591718214 Rate of Right Ascen(r/s): -8.171768958e-09 SQRT(A) (m 1/2): 5153.53418 Right Ascen at Week(rad): 2.198685074 Argument of Perigee(rad): -1.124582813 Mean Anom(rad): 1.495590073 Af0(s): -5.50182251e-05 Af1(s/s): -1.091394e-11 week: 359 ******** Week 359 almanac for PRN-18 ******** ID: 18 Health: 0 Eccentricity: 0.005737304687 Time of Applicability(s): 61440 Orbital Inclination(rad): 0.972204666 Rate of Right Ascen(r/s): -7.966046103e-09 SQRT(A) (m 1/2): 5153.592773 Right Ascen at Week(rad): -3.074294865 Argument of Perigee(rad): -2.860797022 Mean Anom(rad): -0.4920123537 Af0(s): -0.0003308630249 Af1(s/s): 1.091394e-11 week: 359 ******** Week 359 almanac for PRN-19 ******** ID: 19 Health: 0 Eccentricity: 0.01110458374 Time of Applicability(s): 61440 Orbital Inclination(rad): 0.9583748704 Rate of Right Ascen(r/s): -8.183198006e-09 SQRT(A) (m 1/2): 5153.664062 Right Ascen at Week(rad): 2.242587035 Argument of Perigee(rad): 2.927639786 Mean Anom(rad): -2.962731094 Af0(s): 0.0005464138794 Af1(s/s): 0 week: 359 ******** Week 359 almanac for PRN-20 ******** ID: 20 Health: 255 Eccentricity: 0.0003089904785 Time of Applicability(s): 61440 Orbital Inclination(rad): 0.9600107171 Rate of Right Ascen(r/s): -8.011762293e-09 SQRT(A) (m 1/2): 5153.63623 Right Ascen at Week(rad): -1.020652244 Argument of Perigee(rad): 1.239960564 Mean Anom(rad): 1.100981754 Af0(s): 7.536743164e-06 Af1(s/s): 2.546585e-11 week: 359 ******** Week 359 almanac for PRN-21 ******** ID: 21 Health: 0 Eccentricity: 0.0007095336914 Time of Applicability(s): 61440 Orbital Inclination(rad): 0.9625034359 Rate of Right Ascen(r/s): -7.851755628e-09 SQRT(A) (m 1/2): 5153.713867 Right Ascen at Week(rad): -2.026603214 Argument of Perigee(rad): -0.3635534469 Mean Anom(rad): -2.16915894 Af0(s): 0.0003172968872 Af1(s/s): 3.637979e-12 week: 359 ******** Week 359 almanac for PRN-22 ******** ID: 22 Health: 0 Eccentricity: 0.01210737228 Time of Applicability(s): 61440 Orbital Inclination(rad): 0.9575479589 Rate of Right Ascen(r/s): -7.806039438e-09 SQRT(A) (m 1/2): 5153.578613 Right Ascen at Week(rad): 1.184430534 Argument of Perigee(rad): -0.9943461211 Mean Anom(rad): 2.1438917 Af0(s): -3.391534424e-05 Af1(s/s): 3.637979e-12 week: 359 ******** Week 359 almanac for PRN-23 ******** ID: 23 Health: 0 Eccentricity: 0.006021022797 Time of Applicability(s): 61440 Orbital Inclination(rad): 0.9876343555 Rate of Right Ascen(r/s): -7.566029441e-09 SQRT(A) (m 1/2): 5153.663086 Right Ascen at Week(rad): -2.067660045 Argument of Perigee(rad): -2.739518539 Mean Anom(rad): -1.617634423 Af0(s): 0.0004868736084 Af1(s/s): 3.637979e-12 week: 359 ******** Week 359 almanac for PRN-24 ******** ID: 24 Health: 0 Eccentricity: 0.01788234711 Time of Applicability(s): 61440 Orbital Inclination(rad): 0.9352992454 Rate of Right Ascen(r/s): -8.160339911e-09 SQRT(A) (m 1/2): 5153.588379 Right Ascen at Week(rad): -0.06181987519 Argument of Perigee(rad): 1.134230114 Mean Anom(rad): -0.277959491 Af0(s): -8.74262207e-05 Af1(s/s): 1.455192e-11 week: 359 ******** Week 359 almanac for PRN-25 ******** ID: 25 Health: 0 Eccentricity: 0.01294708252 Time of Applicability(s): 61440 Orbital Inclination(rad): 0.9473793441 Rate of Right Ascen(r/s): -7.874613723e-09 SQRT(A) (m 1/2): 5153.678223 Right Ascen at Week(rad): 1.070327231 Argument of Perigee(rad): 1.157036843 Mean Anom(rad): -2.04989493 Af0(s): 0.0003489512085 Af1(s/s): -3.637979e-12 week: 359 ******** Week 359 almanac for PRN-26 ******** ID: 26 Health: 0 Eccentricity: 0.01099920273 Time of Applicability(s): 61440 Orbital Inclination(rad): 0.9281926 Rate of Right Ascen(r/s): -8.068907531e-09 SQRT(A) (m 1/2): 5153.65918 Right Ascen at Week(rad): 0.9959314093 Argument of Perigee(rad): 0.7093605037 Mean Anom(rad): -2.871783935 Af0(s): -0.0002615249878 Af1(s/s): -7.275958e-12 week: 359 ******** Week 359 almanac for PRN-27 ******** ID: 27 Health: 0 Eccentricity: 0.01433086395 Time of Applicability(s): 61440 Orbital Inclination(rad): 0.952544545 Rate of Right Ascen(r/s): -8.217485148e-09 SQRT(A) (m 1/2): 5153.612305 Right Ascen at Week(rad): 2.126054679 Argument of Perigee(rad): 0.8793623517 Mean Anom(rad): 1.670878837 Af0(s): -3.843739014e-05 Af1(s/s): -1.091394e-11 week: 359 ******** Week 359 almanac for PRN-28 ******** ID: 28 Health: 0 Eccentricity: 0.0004072189331 Time of Applicability(s): 61440 Orbital Inclination(rad): 0.9622577593 Rate of Right Ascen(r/s): -7.828897533e-09 SQRT(A) (m 1/2): 5153.734863 Right Ascen at Week(rad): 0.02066642135 Argument of Perigee(rad): 0.06832618579 Mean Anom(rad): -0.9875518146 Af0(s): -0.0004672780762 Af1(s/s): 7.275958e-12 week: 359 ******** Week 359 almanac for PRN-29 ******** ID: 29 Health: 0 Eccentricity: 0.003355979919 Time of Applicability(s): 61440 Orbital Inclination(rad): 0.9618263272 Rate of Right Ascen(r/s): -8.148910863e-09 SQRT(A) (m 1/2): 5153.711914 Right Ascen at Week(rad): 2.215386215 Argument of Perigee(rad): 2.73987844 Mean Anom(rad): 1.541169825 Af0(s): -0.0002931793091 Af1(s/s): 7.275958e-12 week: 359 ******** Week 359 almanac for PRN-30 ******** ID: 30 Health: 0 Eccentricity: 0.008033752441 Time of Applicability(s): 61440 Orbital Inclination(rad): 0.9365635811 Rate of Right Ascen(r/s): -8.080336578e-09 SQRT(A) (m 1/2): 5153.703613 Right Ascen at Week(rad): 0.03761511143 Argument of Perigee(rad): -2.324606696 Mean Anom(rad): -1.41653838 Af0(s): 0.000102499707 Af1(s/s): 1.455192e-11 week: 359 ******** Week 359 almanac for PRN-31 ******** ID: 31 Health: 0 Eccentricity: 0.01081037521 Time of Applicability(s): 61440 Orbital Inclination(rad): 0.9550792086 Rate of Right Ascen(r/s): -7.874613723e-09 SQRT(A) (m 1/2): 5153.71875 Right Ascen at Week(rad): 0.07066872725 Argument of Perigee(rad): 0.9386078655 Mean Anom(rad): -2.359808858 Af0(s): -0.0001311393311 Af1(s/s): 3.637979e-12 week: 359 ******** Week 359 almanac for PRN-32 ******** ID: 32 Health: 0 Eccentricity: 0.009318351746 Time of Applicability(s): 61440 Orbital Inclination(rad): 0.9676386763 Rate of Right Ascen(r/s): -7.920329913e-09 SQRT(A) (m 1/2): 5153.672363 Right Ascen at Week(rad): -1.009320036 Argument of Perigee(rad): -2.003317116 Mean Anom(rad): 2.254634552 Af0(s): -6.406231689e-05 Af1(s/s): 1.818989e-11 week: 359